Погода в Дджербе-Мидун

Тунис     33°48′38″N   10°59′25″E
темп.,
°C
ветер,
м/с
пор.,
м/с
влажн.,
%
обл.,
%
осадки,
мм/ч
давл.,
гПа
погр.,
м
5 августа, чт
чт501:00+29ююв45744 0.0 101148
04:00+31ю55361 0.0 101038
07:00+29ссв67700 0.0 1012140
10:00+31ссв65640 0.0 1014352
13:00+30св75701 0.0 1014453
16:00+29св87700 0.0 1011406
19:00+27всв77760 0.0 1011410
22:00+27в56800 0.0 1012294
6 августа, пт
пт601:00+27св45810 0.0 1012207
04:00+27ссв45760 0.0 1010226
07:00+28св45670 0.0 1012424
10:00+30всв43580 0.0 1013512
13:00+31в43530 0.0 1011536
16:00+30всв77550 0.0 1009370
19:00+28всв68690 0.0 1010326
22:00+28вюв58730 0.0 1011260
7 августа, сб
сб701:00+27юв57760 0.0 1010223
04:00+27юв57760 0.0 1009219
07:00+28вюв47700 0.0 1010280
10:00+31вюв66590 0.0 1010399
13:00+31вюв78570 0.0 1010394
16:00+31вюв79580 0.0 1008287
19:00+29вюв812750 0.0 1008231
22:00+28юв713790 0.0 1010261
8 августа, вс
вс801:00+28юв58790 0.0 1009154
04:00+28вюв57800 0.0 1009122
07:00+29вюв23740 0.0 1011101
10:00+32в44560 0.0 1012248
13:00+33вюв55520 0.0 1012287
16:00+33вюв78550 0.0 1011222
19:00+29вюв711780 0.0 1012219
22:00+29вюв813770 0.0 1013233
9 августа, пн
пн901:00+28вюв610730 0.0 1014218
04:00+28вюв57770 0.0 1014147
07:00+29вюв69690 0.0 1015245
10:00+31вюв78550 0.0 1016342
13:00+33вюв67450 0.0 1015318
16:00+32в78510 0.0 1015261
19:00+29в69710 0.0 1015154
22:00+28в57800 0.0 1016174